owner,sensor,date,latitude,longitude,vertical_datum,sea_water_practical_salinity,qcFlag 
NERRS,ioos:station:NOAA.NERRS:marcewq:1,2019-09-01T00:15:00Z,28.1323,-97.0344,2.24,28.3,11111222 
NERRS,ioos:station:NOAA.NERRS:marcewq:1,2019-09-01T01:15:00Z,28.1323,-97.0344,2.27,15.5,11111222 
NERRS,ioos:station:NOAA.NERRS:marcewq:1,2019-09-01T02:15:00Z,28.1323,-97.0344,2.24,28.4,11111222 
NERRS,ioos:station:NOAA.NERRS:marcewq:1,2019-09-01T03:15:00Z,28.1323,-97.0344,2.23,27.5,11111222 
NERRS,ioos:station:NOAA.NERRS:marcewq:1,2019-09-01T04:15:00Z,28.1323,-97.0344,2.22,26.0,11111222 
NERRS,ioos:station:NOAA.NERRS:marcewq:1,2019-09-01T05:15:00Z,28.1323,-97.0344,2.2,25.6,11111222 
NERRS,ioos:station:NOAA.NERRS:marcewq:1,2019-09-01T06:15:00Z,28.1323,-97.0344,2.2,21.0,11111222 
NERRS,ioos:station:NOAA.NERRS:marcewq:1,2019-09-01T07:15:00Z,28.1323,-97.0344,2.19,19.6,11111222 
NERRS,ioos:station:NOAA.NERRS:marcewq:1,2019-09-01T08:15:00Z,28.1323,-97.0344,2.18,24.5,11111222 
NERRS,ioos:station:NOAA.NERRS:marcewq:1,2019-09-01T09:15:00Z,28.1323,-97.0344,2.17,15.3,11111222 
NERRS,ioos:station:NOAA.NERRS:marcewq:1,2019-09-01T10:15:00Z,28.1323,-97.0344,2.18,14.9,11111222 
NERRS,ioos:station:NOAA.NERRS:marcewq:1,2019-09-01T11:15:00Z,28.1323,-97.0344,2.18,19.3,11111222 
NERRS,ioos:station:NOAA.NERRS:marcewq:1,2019-09-01T12:15:00Z,28.1323,-97.0344,2.19,18.5,11111222 
NERRS,ioos:station:NOAA.NERRS:marcewq:1,2019-09-01T13:15:00Z,28.1323,-97.0344,2.2,21.9,11111222 
NERRS,ioos:station:NOAA.NERRS:marcewq:1,2019-09-01T14:15:00Z,28.1323,-97.0344,2.21,20.3,11111222 
NERRS,ioos:station:NOAA.NERRS:marcewq:1,2019-09-01T15:15:00Z,28.1323,-97.0344,2.21,25.5,11111222 
NERRS,ioos:station:NOAA.NERRS:marcewq:1,2019-09-01T16:15:00Z,28.1323,-97.0344,2.22,20.7,11111222 
NERRS,ioos:station:NOAA.NERRS:marcewq:1,2019-09-01T17:15:00Z,28.1323,-97.0344,2.22,18.7,11111222 
NERRS,ioos:station:NOAA.NERRS:marcewq:1,2019-09-01T19:15:00Z,28.1323,-97.0344,2.2,23.0,11111222 
NERRS,ioos:station:NOAA.NERRS:marcewq:1,2019-09-01T20:15:00Z,28.1323,-97.0344,2.18,25.4,11111222 
NERRS,ioos:station:NOAA.NERRS:marcewq:1,2019-09-01T21:15:00Z,28.1323,-97.0344,2.17,25.2,11111222 
NERRS,ioos:station:NOAA.NERRS:marcewq:1,2019-09-01T22:15:00Z,28.1323,-97.0344,2.2,20.9,11111222 
NERRS,ioos:station:NOAA.NERRS:marcewq:1,2019-09-01T23:15:00Z,28.1323,-97.0344,2.21,20.7,11111222 
NERRS,ioos:station:NOAA.NERRS:marcewq:1,2019-09-02T00:15:00Z,28.1323,-97.0344,2.23,17.0,11111222 
NERRS,ioos:station:NOAA.NERRS:marcewq:1,2019-09-02T02:15:00Z,28.1323,-97.0344,2.26,21.4,11111222 
NERRS,ioos:station:NOAA.NERRS:marcewq:1,2019-09-02T03:15:00Z,28.1323,-97.0344,2.26,28.4,11111222 
NERRS,ioos:station:NOAA.NERRS:marcewq:1,2019-09-02T04:15:00Z,28.1323,-97.0344,2.29,18.9,11111222 
NERRS,ioos:station:NOAA.NERRS:marcewq:1,2019-09-02T05:15:00Z,28.1323,-97.0344,2.28,18.8,11111222 
NERRS,ioos:station:NOAA.NERRS:marcewq:1,2019-09-02T06:15:00Z,28.1323,-97.0344,2.28,18.7,11111222 
NERRS,ioos:station:NOAA.NERRS:marcewq:1,2019-09-02T07:15:00Z,28.1323,-97.0344,2.25,28.3,11111222 
NERRS,ioos:station:NOAA.NERRS:marcewq:1,2019-09-02T08:15:00Z,28.1323,-97.0344,2.24,27.9,11111222 
NERRS,ioos:station:NOAA.NERRS:marcewq:1,2019-09-02T09:15:00Z,28.1323,-97.0344,2.25,17.2,11111222 
NERRS,ioos:station:NOAA.NERRS:marcewq:1,2019-09-02T10:15:00Z,28.1323,-97.0344,2.24,21.9,11111222 
NERRS,ioos:station:NOAA.NERRS:marcewq:1,2019-09-02T11:15:00Z,28.1323,-97.0344,2.25,16.0,11111222 
NERRS,ioos:station:NOAA.NERRS:marcewq:1,2019-09-02T12:15:00Z,28.1323,-97.0344,2.25,19.7,11111222 
NERRS,ioos:station:NOAA.NERRS:marcewq:1,2019-09-02T15:15:00Z,28.1323,-97.0344,2.28,22.1,11111222 
NERRS,ioos:station:NOAA.NERRS:marcewq:1,2019-09-02T16:15:00Z,28.1323,-97.0344,2.28,20.5,11111222 
NERRS,ioos:station:NOAA.NERRS:marcewq:1,2019-09-02T17:15:00Z,28.1323,-97.0344,2.27,22.4,11111222 
NERRS,ioos:station:NOAA.NERRS:marcewq:1,2019-09-02T18:15:00Z,28.1323,-97.0344,2.26,18.8,11111222 
NERRS,ioos:station:NOAA.NERRS:marcewq:1,2019-09-02T19:15:00Z,28.1323,-97.0344,2.25,22.2,11111222 
NERRS,ioos:station:NOAA.NERRS:marcewq:1,2019-09-02T20:15:00Z,28.1323,-97.0344,2.24,20.8,11111222 
NERRS,ioos:station:NOAA.NERRS:marcewq:1,2019-09-02T21:15:00Z,28.1323,-97.0344,2.24,21.6,11111222 
NERRS,ioos:station:NOAA.NERRS:marcewq:1,2019-09-02T22:15:00Z,28.1323,-97.0344,2.22,21.2,11111222 
NERRS,ioos:station:NOAA.NERRS:marcewq:1,2019-09-02T23:15:00Z,28.1323,-97.0344,2.25,21.7,11111222 
NERRS,ioos:station:NOAA.NERRS:marcewq:1,2019-09-03T00:15:00Z,28.1323,-97.0344,2.26,23.3,11111222 
NERRS,ioos:station:NOAA.NERRS:marcewq:1,2019-09-03T01:15:00Z,28.1323,-97.0344,2.29,21.0,11111222 
NERRS,ioos:station:NOAA.NERRS:marcewq:1,2019-09-03T02:15:00Z,28.1323,-97.0344,2.3,21.9,11111222 
NERRS,ioos:station:NOAA.NERRS:marcewq:1,2019-09-03T03:15:00Z,28.1323,-97.0344,2.31,29.7,11111222 
NERRS,ioos:station:NOAA.NERRS:marcewq:1,2019-09-03T04:15:00Z,28.1323,-97.0344,2.33,25.8,11111222 
NERRS,ioos:station:NOAA.NERRS:marcewq:1,2019-09-03T05:15:00Z,28.1323,-97.0344,2.32,29.8,11111222 
NERRS,ioos:station:NOAA.NERRS:marcewq:1,2019-09-03T06:15:00Z,28.1323,-97.0344,2.32,29.9,11111222 
NERRS,ioos:station:NOAA.NERRS:marcewq:1,2019-09-03T07:15:00Z,28.1323,-97.0344,2.33,29.9,11111222 
NERRS,ioos:station:NOAA.NERRS:marcewq:1,2019-09-03T08:15:00Z,28.1323,-97.0344,2.34,19.4,11111222 
NERRS,ioos:station:NOAA.NERRS:marcewq:1,2019-09-03T09:15:00Z,28.1323,-97.0344,2.33,30.0,11111222 
NERRS,ioos:station:NOAA.NERRS:marcewq:1,2019-09-03T10:15:00Z,28.1323,-97.0344,2.32,30.2,11111222 
NERRS,ioos:station:NOAA.NERRS:marcewq:1,2019-09-03T11:15:00Z,28.1323,-97.0344,2.35,16.5,11111222 
NERRS,ioos:station:NOAA.NERRS:marcewq:1,2019-09-03T12:15:00Z,28.1323,-97.0344,2.34,30.2,11111222 
NERRS,ioos:station:NOAA.NERRS:marcewq:1,2019-09-03T13:15:00Z,28.1323,-97.0344,2.35,21.9,11111222 
NERRS,ioos:station:NOAA.NERRS:marcewq:1,2019-09-03T14:15:00Z,28.1323,-97.0344,2.35,21.9,11111222 
NERRS,ioos:station:NOAA.NERRS:marcewq:1,2019-09-03T15:15:00Z,28.1323,-97.0344,2.36,16.9,11111222 
NERRS,ioos:station:NOAA.NERRS:marcewq:1,2019-09-03T16:15:00Z,28.1323,-97.0344,2.34,26.6,11111222 
NERRS,ioos:station:NOAA.NERRS:marcewq:1,2019-09-03T17:15:00Z,28.1323,-97.0344,2.3,29.5,11111222 
NERRS,ioos:station:NOAA.NERRS:marcewq:1,2019-09-03T18:15:00Z,28.1323,-97.0344,2.29,28.6,11111222 
NERRS,ioos:station:NOAA.NERRS:marcewq:1,2019-09-03T19:15:00Z,28.1323,-97.0344,2.28,27.7,11111222 
NERRS,ioos:station:NOAA.NERRS:marcewq:1,2019-09-03T20:15:00Z,28.1323,-97.0344,2.27,27.3,11111222 
NERRS,ioos:station:NOAA.NERRS:marcewq:1,2019-09-03T21:15:00Z,28.1323,-97.0344,2.27,27.0,11111222 
NERRS,ioos:station:NOAA.NERRS:marcewq:1,2019-09-03T22:15:00Z,28.1323,-97.0344,2.26,27.4,11111222 
NERRS,ioos:station:NOAA.NERRS:marcewq:1,2019-09-03T23:15:00Z,28.1323,-97.0344,2.28,18.1,11111222 
NERRS,ioos:station:NOAA.NERRS:marcewq:1,2019-09-04T00:15:00Z,28.1323,-97.0344,2.28,26.1,11111222 
NERRS,ioos:station:NOAA.NERRS:marcewq:1,2019-09-04T01:15:00Z,28.1323,-97.0344,2.3,28.4,11111222 
NERRS,ioos:station:NOAA.NERRS:marcewq:1,2019-09-04T02:15:00Z,28.1323,-97.0344,2.33,27.6,11111222 
NERRS,ioos:station:NOAA.NERRS:marcewq:1,2019-09-04T03:15:00Z,28.1323,-97.0344,2.34,25.7,11111222 
NERRS,ioos:station:NOAA.NERRS:marcewq:1,2019-09-04T04:15:00Z,28.1323,-97.0344,2.38,21.3,11111222 
NERRS,ioos:station:NOAA.NERRS:marcewq:1,2019-09-04T05:15:00Z,28.1323,-97.0344,2.39,17.3,11111222 
NERRS,ioos:station:NOAA.NERRS:marcewq:1,2019-09-04T06:15:00Z,28.1323,-97.0344,2.39,21.5,11111222 
NERRS,ioos:station:NOAA.NERRS:marcewq:1,2019-09-04T07:15:00Z,28.1323,-97.0344,2.41,18.6,11111222 
NERRS,ioos:station:NOAA.NERRS:marcewq:1,2019-09-04T08:15:00Z,28.1323,-97.0344,2.41,22.6,11111222 
NERRS,ioos:station:NOAA.NERRS:marcewq:1,2019-09-04T09:15:00Z,28.1323,-97.0344,2.42,24.9,11111222 
NERRS,ioos:station:NOAA.NERRS:marcewq:1,2019-09-04T10:15:00Z,28.1323,-97.0344,2.42,22.5,11111222 
NERRS,ioos:station:NOAA.NERRS:marcewq:1,2019-09-04T11:15:00Z,28.1323,-97.0344,2.44,22.1,11111222 
NERRS,ioos:station:NOAA.NERRS:marcewq:1,2019-09-04T12:15:00Z,28.1323,-97.0344,2.42,31.2,11111222 
NERRS,ioos:station:NOAA.NERRS:marcewq:1,2019-09-04T13:15:00Z,28.1323,-97.0344,2.44,31.0,11111222 
NERRS,ioos:station:NOAA.NERRS:marcewq:1,2019-09-04T14:15:00Z,28.1323,-97.0344,2.46,24.2,11111222 
NERRS,ioos:station:NOAA.NERRS:marcewq:1,2019-09-04T15:15:00Z,28.1323,-97.0344,2.48,22.2,11111222 
NERRS,ioos:station:NOAA.NERRS:marcewq:1,2019-09-04T16:15:00Z,28.1323,-97.0344,2.46,24.3,11111222 
NERRS,ioos:station:NOAA.NERRS:marcewq:1,2019-09-04T17:15:00Z,28.1323,-97.0344,2.42,31.0,11111222 
NERRS,ioos:station:NOAA.NERRS:marcewq:1,2019-09-04T18:15:00Z,28.1323,-97.0344,2.43,30.9,11111222 
NERRS,ioos:station:NOAA.NERRS:marcewq:1,2019-09-04T19:15:00Z,28.1323,-97.0344,2.41,30.9,11111222 
NERRS,ioos:station:NOAA.NERRS:marcewq:1,2019-09-04T20:15:00Z,28.1323,-97.0344,2.39,29.6,11111222 
NERRS,ioos:station:NOAA.NERRS:marcewq:1,2019-09-04T21:15:00Z,28.1323,-97.0344,2.41,30.9,11111222 
NERRS,ioos:station:NOAA.NERRS:marcewq:1,2019-09-04T22:15:00Z,28.1323,-97.0344,2.4,31.0,11111222 
NERRS,ioos:station:NOAA.NERRS:marcewq:1,2019-09-04T23:15:00Z,28.1323,-97.0344,2.4,31.2,11111222 
NERRS,ioos:station:NOAA.NERRS:marcewq:1,2019-09-05T00:15:00Z,28.1323,-97.0344,2.4,31.0,11111222 
NERRS,ioos:station:NOAA.NERRS:marcewq:1,2019-09-05T01:15:00Z,28.1323,-97.0344,2.4,23.1,11111222 
NERRS,ioos:station:NOAA.NERRS:marcewq:1,2019-09-05T02:15:00Z,28.1323,-97.0344,2.41,23.2,11111222 
NERRS,ioos:station:NOAA.NERRS:marcewq:1,2019-09-05T03:15:00Z,28.1323,-97.0344,2.44,23.1,11111222 
NERRS,ioos:station:NOAA.NERRS:marcewq:1,2019-09-05T04:15:00Z,28.1323,-97.0344,2.44,23.3,11111222 
NERRS,ioos:station:NOAA.NERRS:marcewq:1,2019-09-05T05:15:00Z,28.1323,-97.0344,2.45,30.8,11111222 
NERRS,ioos:station:NOAA.NERRS:marcewq:1,2019-09-05T06:15:00Z,28.1323,-97.0344,2.48,24.4,11111222 
NERRS,ioos:station:NOAA.NERRS:marcewq:1,2019-09-05T07:15:00Z,28.1323,-97.0344,2.5,20.4,11111222 
NERRS,ioos:station:NOAA.NERRS:marcewq:1,2019-09-05T08:15:00Z,28.1323,-97.0344,2.5,22.3,11111222 
NERRS,ioos:station:NOAA.NERRS:marcewq:1,2019-09-05T09:15:00Z,28.1323,-97.0344,2.54,22.9,11111222 
NERRS,ioos:station:NOAA.NERRS:marcewq:1,2019-09-05T10:15:00Z,28.1323,-97.0344,2.53,21.8,11111222 
NERRS,ioos:station:NOAA.NERRS:marcewq:1,2019-09-05T11:15:00Z,28.1323,-97.0344,2.58,19.1,11111222 
NERRS,ioos:station:NOAA.NERRS:marcewq:1,2019-09-05T12:15:00Z,28.1323,-97.0344,2.58,19.8,11111222 
NERRS,ioos:station:NOAA.NERRS:marcewq:1,2019-09-05T13:15:00Z,28.1323,-97.0344,2.64,17.5,11111222 
NERRS,ioos:station:NOAA.NERRS:marcewq:1,2019-09-05T14:15:00Z,28.1323,-97.0344,2.55,21.7,11111222 
NERRS,ioos:station:NOAA.NERRS:marcewq:1,2019-09-05T15:15:00Z,28.1323,-97.0344,2.58,18.1,11111222 
NERRS,ioos:station:NOAA.NERRS:marcewq:1,2019-09-05T16:15:00Z,28.1323,-97.0344,2.55,20.6,11111222 
NERRS,ioos:station:NOAA.NERRS:marcewq:1,2019-09-05T17:15:00Z,28.1323,-97.0344,2.53,22.1,11111222 
NERRS,ioos:station:NOAA.NERRS:marcewq:1,2019-09-05T18:15:00Z,28.1323,-97.0344,2.52,18.9,11111222 
NERRS,ioos:station:NOAA.NERRS:marcewq:1,2019-09-05T19:15:00Z,28.1323,-97.0344,2.5,18.5,11111222 
NERRS,ioos:station:NOAA.NERRS:marcewq:1,2019-09-05T20:15:00Z,28.1323,-97.0344,2.48,18.1,11111222 
NERRS,ioos:station:NOAA.NERRS:marcewq:1,2019-09-05T21:15:00Z,28.1323,-97.0344,2.44,18.5,11111222 
NERRS,ioos:station:NOAA.NERRS:marcewq:1,2019-09-05T22:15:00Z,28.1323,-97.0344,2.43,17.4,11111222 
NERRS,ioos:station:NOAA.NERRS:marcewq:1,2019-09-05T23:15:00Z,28.1323,-97.0344,2.41,20.6,11111222 
NERRS,ioos:station:NOAA.NERRS:marcewq:1,2019-09-06T00:15:00Z,28.1323,-97.0344,2.41,14.0,11111222 
NERRS,ioos:station:NOAA.NERRS:marcewq:1,2019-09-06T01:15:00Z,28.1323,-97.0344,2.38,18.2,11111222 
NERRS,ioos:station:NOAA.NERRS:marcewq:1,2019-09-06T02:15:00Z,28.1323,-97.0344,2.38,17.0,11111222 
NERRS,ioos:station:NOAA.NERRS:marcewq:1,2019-09-06T03:15:00Z,28.1323,-97.0344,2.37,19.4,11111222 
NERRS,ioos:station:NOAA.NERRS:marcewq:1,2019-09-06T04:15:00Z,28.1323,-97.0344,2.37,18.1,11111222 
NERRS,ioos:station:NOAA.NERRS:marcewq:1,2019-09-06T06:15:00Z,28.1323,-97.0344,2.35,27.2,11111222 
NERRS,ioos:station:NOAA.NERRS:marcewq:1,2019-09-06T07:15:00Z,28.1323,-97.0344,2.36,16.8,11111222 
NERRS,ioos:station:NOAA.NERRS:marcewq:1,2019-09-06T08:15:00Z,28.1323,-97.0344,2.35,21.7,11111222 
NERRS,ioos:station:NOAA.NERRS:marcewq:1,2019-09-06T09:15:00Z,28.1323,-97.0344,2.33,27.2,11111222 
NERRS,ioos:station:NOAA.NERRS:marcewq:1,2019-09-06T10:15:00Z,28.1323,-97.0344,2.34,22.0,11111222 
NERRS,ioos:station:NOAA.NERRS:marcewq:1,2019-09-06T11:15:00Z,28.1323,-97.0344,2.34,18.8,11111222 
NERRS,ioos:station:NOAA.NERRS:marcewq:1,2019-09-06T12:15:00Z,28.1323,-97.0344,2.33,20.3,11111222 
NERRS,ioos:station:NOAA.NERRS:marcewq:1,2019-09-06T13:15:00Z,28.1323,-97.0344,2.33,19.5,11111222 
NERRS,ioos:station:NOAA.NERRS:marcewq:1,2019-09-06T14:15:00Z,28.1323,-97.0344,2.31,26.9,11111222 
NERRS,ioos:station:NOAA.NERRS:marcewq:1,2019-09-06T15:15:00Z,28.1323,-97.0344,2.31,26.8,11111222 
NERRS,ioos:station:NOAA.NERRS:marcewq:1,2019-09-06T16:15:00Z,28.1323,-97.0344,2.3,27.1,11111222 
NERRS,ioos:station:NOAA.NERRS:marcewq:1,2019-09-06T17:15:00Z,28.1323,-97.0344,2.29,26.0,11111222 
NERRS,ioos:station:NOAA.NERRS:marcewq:1,2019-09-06T18:15:00Z,28.1323,-97.0344,2.28,25.7,11111222 
NERRS,ioos:station:NOAA.NERRS:marcewq:1,2019-09-06T19:15:00Z,28.1323,-97.0344,2.27,18.3,11111222 
NERRS,ioos:station:NOAA.NERRS:marcewq:1,2019-09-06T20:15:00Z,28.1323,-97.0344,2.25,18.4,11111222 
NERRS,ioos:station:NOAA.NERRS:marcewq:1,2019-09-06T21:15:00Z,28.1323,-97.0344,2.22,21.1,11111222 
NERRS,ioos:station:NOAA.NERRS:marcewq:1,2019-09-06T22:15:00Z,28.1323,-97.0344,2.2,23.9,11111222 
NERRS,ioos:station:NOAA.NERRS:marcewq:1,2019-09-06T23:15:00Z,28.1323,-97.0344,2.2,14.5,11111222 
NERRS,ioos:station:NOAA.NERRS:marcewq:1,2019-09-07T00:15:00Z,28.1323,-97.0344,2.18,24.2,11111222 
NERRS,ioos:station:NOAA.NERRS:marcewq:1,2019-09-07T01:15:00Z,28.1323,-97.0344,2.18,22.1,11111222 
NERRS,ioos:station:NOAA.NERRS:marcewq:1,2019-09-07T02:15:00Z,28.1323,-97.0344,2.17,22.3,11111222 
NERRS,ioos:station:NOAA.NERRS:marcewq:1,2019-09-07T03:15:00Z,28.1323,-97.0344,2.19,16.0,11111222 
NERRS,ioos:station:NOAA.NERRS:marcewq:1,2019-09-07T04:15:00Z,28.1323,-97.0344,2.19,21.1,11111222 
NERRS,ioos:station:NOAA.NERRS:marcewq:1,2019-09-07T05:15:00Z,28.1323,-97.0344,2.19,23.0,11111222 
NERRS,ioos:station:NOAA.NERRS:marcewq:1,2019-09-07T06:15:00Z,28.1323,-97.0344,2.22,17.9,11111222 
NERRS,ioos:station:NOAA.NERRS:marcewq:1,2019-09-07T07:15:00Z,28.1323,-97.0344,2.23,19.0,11111222 
NERRS,ioos:station:NOAA.NERRS:marcewq:1,2019-09-07T08:15:00Z,28.1323,-97.0344,2.24,16.5,11111222 
NERRS,ioos:station:NOAA.NERRS:marcewq:1,2019-09-07T09:15:00Z,28.1323,-97.0344,2.25,23.7,11111222 
NERRS,ioos:station:NOAA.NERRS:marcewq:1,2019-09-07T10:15:00Z,28.1323,-97.0344,2.25,23.3,11111222 
NERRS,ioos:station:NOAA.NERRS:marcewq:1,2019-09-07T11:15:00Z,28.1323,-97.0344,2.27,13.9,11111222 
NERRS,ioos:station:NOAA.NERRS:marcewq:1,2019-09-07T12:15:00Z,28.1323,-97.0344,2.27,23.7,11111222 
NERRS,ioos:station:NOAA.NERRS:marcewq:1,2019-09-07T13:15:00Z,28.1323,-97.0344,2.29,16.6,11111222 
NERRS,ioos:station:NOAA.NERRS:marcewq:1,2019-09-07T14:15:00Z,28.1323,-97.0344,2.28,23.9,11111222 
NERRS,ioos:station:NOAA.NERRS:marcewq:1,2019-09-07T15:15:00Z,28.1323,-97.0344,2.29,20.2,11111222 
NERRS,ioos:station:NOAA.NERRS:marcewq:1,2019-09-07T16:15:00Z,28.1323,-97.0344,2.29,18.4,11111222 
NERRS,ioos:station:NOAA.NERRS:marcewq:1,2019-09-07T17:15:00Z,28.1323,-97.0344,2.26,23.5,11111222 
NERRS,ioos:station:NOAA.NERRS:marcewq:1,2019-09-07T18:15:00Z,28.1323,-97.0344,2.26,12.7,11111222 
NERRS,ioos:station:NOAA.NERRS:marcewq:1,2019-09-07T19:15:00Z,28.1323,-97.0344,2.22,23.8,11111222 
NERRS,ioos:station:NOAA.NERRS:marcewq:1,2019-09-07T20:15:00Z,28.1323,-97.0344,2.2,23.8,11111222 
NERRS,ioos:station:NOAA.NERRS:marcewq:1,2019-09-07T21:15:00Z,28.1323,-97.0344,2.19,20.0,11111222 
NERRS,ioos:station:NOAA.NERRS:marcewq:1,2019-09-07T22:15:00Z,28.1323,-97.0344,2.18,19.8,11111222 
NERRS,ioos:station:NOAA.NERRS:marcewq:1,2019-09-07T23:15:00Z,28.1323,-97.0344,2.17,20.1,11111222 
NERRS,ioos:station:NOAA.NERRS:marcewq:1,2019-09-08T00:15:00Z,28.1323,-97.0344,2.15,20.2,11111222 
NERRS,ioos:station:NOAA.NERRS:marcewq:1,2019-09-08T01:15:00Z,28.1323,-97.0344,2.15,17.4,11111222 
NERRS,ioos:station:NOAA.NERRS:marcewq:1,2019-09-08T02:15:00Z,28.1323,-97.0344,2.14,17.9,11111222 
NERRS,ioos:station:NOAA.NERRS:marcewq:1,2019-09-08T03:15:00Z,28.1323,-97.0344,2.13,23.4,11111222 
NERRS,ioos:station:NOAA.NERRS:marcewq:1,2019-09-08T04:15:00Z,28.1323,-97.0344,2.14,17.9,11111222 
NERRS,ioos:station:NOAA.NERRS:marcewq:1,2019-09-08T05:15:00Z,28.1323,-97.0344,2.15,17.2,11111222 
NERRS,ioos:station:NOAA.NERRS:marcewq:1,2019-09-08T06:15:00Z,28.1323,-97.0344,2.16,18.1,11111222 
NERRS,ioos:station:NOAA.NERRS:marcewq:1,2019-09-08T07:15:00Z,28.1323,-97.0344,2.16,19.8,11111222 
NERRS,ioos:station:NOAA.NERRS:marcewq:1,2019-09-08T08:15:00Z,28.1323,-97.0344,2.18,18.7,11111222 
NERRS,ioos:station:NOAA.NERRS:marcewq:1,2019-09-08T09:15:00Z,28.1323,-97.0344,2.19,19.5,11111222 
NERRS,ioos:station:NOAA.NERRS:marcewq:1,2019-09-08T10:15:00Z,28.1323,-97.0344,2.21,17.1,11111222 
NERRS,ioos:station:NOAA.NERRS:marcewq:1,2019-09-08T11:15:00Z,28.1323,-97.0344,2.21,23.5,11111222 
NERRS,ioos:station:NOAA.NERRS:marcewq:1,2019-09-08T12:15:00Z,28.1323,-97.0344,2.23,17.2,11111222 
NERRS,ioos:station:NOAA.NERRS:marcewq:1,2019-09-08T13:15:00Z,28.1323,-97.0344,2.24,20.0,11111222 
NERRS,ioos:station:NOAA.NERRS:marcewq:1,2019-09-08T14:15:00Z,28.1323,-97.0344,2.25,21.3,11111222 
NERRS,ioos:station:NOAA.NERRS:marcewq:1,2019-09-08T15:15:00Z,28.1323,-97.0344,2.26,21.6,11111222 
NERRS,ioos:station:NOAA.NERRS:marcewq:1,2019-09-08T16:15:00Z,28.1323,-97.0344,2.27,20.6,11111222 
NERRS,ioos:station:NOAA.NERRS:marcewq:1,2019-09-08T17:15:00Z,28.1323,-97.0344,2.27,21.0,11111222 
NERRS,ioos:station:NOAA.NERRS:marcewq:1,2019-09-08T18:15:00Z,28.1323,-97.0344,2.28,18.6,11111222 
NERRS,ioos:station:NOAA.NERRS:marcewq:1,2019-09-08T19:15:00Z,28.1323,-97.0344,2.27,21.0,11111222 
NERRS,ioos:station:NOAA.NERRS:marcewq:1,2019-09-08T20:15:00Z,28.1323,-97.0344,2.27,17.9,11111222 
NERRS,ioos:station:NOAA.NERRS:marcewq:1,2019-09-08T21:15:00Z,28.1323,-97.0344,2.26,16.5,11111222 
NERRS,ioos:station:NOAA.NERRS:marcewq:1,2019-09-08T22:15:00Z,28.1323,-97.0344,2.24,18.7,11111222 
NERRS,ioos:station:NOAA.NERRS:marcewq:1,2019-09-08T23:15:00Z,28.1323,-97.0344,2.23,13.0,11111222 
NERRS,ioos:station:NOAA.NERRS:marcewq:1,2019-09-09T00:15:00Z,28.1323,-97.0344,2.21,19.0,11111222 
NERRS,ioos:station:NOAA.NERRS:marcewq:1,2019-09-09T01:15:00Z,28.1323,-97.0344,2.2,15.4,11111222 
NERRS,ioos:station:NOAA.NERRS:marcewq:1,2019-09-09T02:15:00Z,28.1323,-97.0344,2.18,21.8,11111222 
NERRS,ioos:station:NOAA.NERRS:marcewq:1,2019-09-09T03:15:00Z,28.1323,-97.0344,2.17,23.1,11111222 
NERRS,ioos:station:NOAA.NERRS:marcewq:1,2019-09-09T04:15:00Z,28.1323,-97.0344,2.18,14.7,11111222 
NERRS,ioos:station:NOAA.NERRS:marcewq:1,2019-09-09T05:15:00Z,28.1323,-97.0344,2.18,19.6,11111222 
NERRS,ioos:station:NOAA.NERRS:marcewq:1,2019-09-09T06:15:00Z,28.1323,-97.0344,2.19,19.3,11111222 
NERRS,ioos:station:NOAA.NERRS:marcewq:1,2019-09-09T07:15:00Z,28.1323,-97.0344,2.2,19.3,11111222 
NERRS,ioos:station:NOAA.NERRS:marcewq:1,2019-09-09T08:15:00Z,28.1323,-97.0344,2.21,21.0,11111222 
NERRS,ioos:station:NOAA.NERRS:marcewq:1,2019-09-09T09:15:00Z,28.1323,-97.0344,2.22,17.2,11111222 
NERRS,ioos:station:NOAA.NERRS:marcewq:1,2019-09-09T10:15:00Z,28.1323,-97.0344,2.24,19.3,11111222 
NERRS,ioos:station:NOAA.NERRS:marcewq:1,2019-09-09T11:15:00Z,28.1323,-97.0344,2.25,18.5,11111222 
NERRS,ioos:station:NOAA.NERRS:marcewq:1,2019-09-09T12:15:00Z,28.1323,-97.0344,2.26,17.3,11111222 
NERRS,ioos:station:NOAA.NERRS:marcewq:1,2019-09-09T13:15:00Z,28.1323,-97.0344,2.27,18.7,11111222 
NERRS,ioos:station:NOAA.NERRS:marcewq:1,2019-09-09T14:15:00Z,28.1323,-97.0344,2.28,23.6,11111222 
NERRS,ioos:station:NOAA.NERRS:marcewq:1,2019-09-09T15:15:00Z,28.1323,-97.0344,2.3,23.6,11111222 
NERRS,ioos:station:NOAA.NERRS:marcewq:1,2019-09-09T16:15:00Z,28.1323,-97.0344,2.3,19.8,11111222 
NERRS,ioos:station:NOAA.NERRS:marcewq:1,2019-09-09T17:15:00Z,28.1323,-97.0344,2.3,23.5,11111222 
NERRS,ioos:station:NOAA.NERRS:marcewq:1,2019-09-09T21:15:00Z,28.1323,-97.0344,2.31,12.9,11111222 
NERRS,ioos:station:NOAA.NERRS:marcewq:1,2019-09-09T22:15:00Z,28.1323,-97.0344,2.3,13.1,11111222 
NERRS,ioos:station:NOAA.NERRS:marcewq:1,2019-09-09T23:15:00Z,28.1323,-97.0344,2.27,16.4,11111222 
NERRS,ioos:station:NOAA.NERRS:marcewq:1,2019-09-10T00:15:00Z,28.1323,-97.0344,2.26,20.7,11111222 
NERRS,ioos:station:NOAA.NERRS:marcewq:1,2019-09-10T01:15:00Z,28.1323,-97.0344,2.25,16.5,11111222 
NERRS,ioos:station:NOAA.NERRS:marcewq:1,2019-09-10T02:15:00Z,28.1323,-97.0344,2.23,23.5,11111222 
NERRS,ioos:station:NOAA.NERRS:marcewq:1,2019-09-10T03:15:00Z,28.1323,-97.0344,2.23,23.5,11111222 
NERRS,ioos:station:NOAA.NERRS:marcewq:1,2019-09-10T05:15:00Z,28.1323,-97.0344,2.23,16.7,11111222 
NERRS,ioos:station:NOAA.NERRS:marcewq:1,2019-09-10T06:15:00Z,28.1323,-97.0344,2.22,23.7,11111222 
NERRS,ioos:station:NOAA.NERRS:marcewq:1,2019-09-10T07:15:00Z,28.1323,-97.0344,2.23,23.4,11111222 
NERRS,ioos:station:NOAA.NERRS:marcewq:1,2019-09-10T08:15:00Z,28.1323,-97.0344,2.24,20.6,11111222 
NERRS,ioos:station:NOAA.NERRS:marcewq:1,2019-09-10T09:15:00Z,28.1323,-97.0344,2.25,15.6,11111222 
NERRS,ioos:station:NOAA.NERRS:marcewq:1,2019-09-10T10:15:00Z,28.1323,-97.0344,2.26,23.5,11111222 
NERRS,ioos:station:NOAA.NERRS:marcewq:1,2019-09-10T11:15:00Z,28.1323,-97.0344,2.28,19.5,11111222 
NERRS,ioos:station:NOAA.NERRS:marcewq:1,2019-09-10T12:15:00Z,28.1323,-97.0344,2.31,16.7,11111222 
NERRS,ioos:station:NOAA.NERRS:marcewq:1,2019-09-10T13:15:00Z,28.1323,-97.0344,2.32,18.4,11111222 
NERRS,ioos:station:NOAA.NERRS:marcewq:1,2019-09-10T14:15:00Z,28.1323,-97.0344,2.33,22.0,11111222 
NERRS,ioos:station:NOAA.NERRS:marcewq:1,2019-09-10T15:15:00Z,28.1323,-97.0344,2.33,24.0,11111222 
NERRS,ioos:station:NOAA.NERRS:marcewq:1,2019-09-10T16:15:00Z,28.1323,-97.0344,2.36,14.6,11111222 
NERRS,ioos:station:NOAA.NERRS:marcewq:1,2019-09-10T17:15:00Z,28.1323,-97.0344,2.37,20.1,11111222 
NERRS,ioos:station:NOAA.NERRS:marcewq:1,2019-09-10T18:15:00Z,28.1323,-97.0344,2.36,24.1,11111222 
NERRS,ioos:station:NOAA.NERRS:marcewq:1,2019-09-10T19:15:00Z,28.1323,-97.0344,2.37,21.8,11111222 
NERRS,ioos:station:NOAA.NERRS:marcewq:1,2019-09-10T20:15:00Z,28.1323,-97.0344,2.37,24.3,11111222 
NERRS,ioos:station:NOAA.NERRS:marcewq:1,2019-09-10T21:15:00Z,28.1323,-97.0344,2.36,24.3,11111222 
NERRS,ioos:station:NOAA.NERRS:marcewq:1,2019-09-10T22:15:00Z,28.1323,-97.0344,2.36,23.1,11111222 
NERRS,ioos:station:NOAA.NERRS:marcewq:1,2019-09-10T23:15:00Z,28.1323,-97.0344,2.3,22.9,11111222 
NERRS,ioos:station:NOAA.NERRS:marcewq:1,2019-09-11T00:15:00Z,28.1323,-97.0344,2.33,22.8,11111222 
NERRS,ioos:station:NOAA.NERRS:marcewq:1,2019-09-11T01:15:00Z,28.1323,-97.0344,2.32,11.2,11111222 
NERRS,ioos:station:NOAA.NERRS:marcewq:1,2019-09-11T02:15:00Z,28.1323,-97.0344,2.3,23.6,11111222 
NERRS,ioos:station:NOAA.NERRS:marcewq:1,2019-09-11T03:15:00Z,28.1323,-97.0344,2.31,18.5,11111222 
NERRS,ioos:station:NOAA.NERRS:marcewq:1,2019-09-11T04:15:00Z,28.1323,-97.0344,2.29,23.5,11111222 
NERRS,ioos:station:NOAA.NERRS:marcewq:1,2019-09-11T05:15:00Z,28.1323,-97.0344,2.29,23.4,11111222 
NERRS,ioos:station:NOAA.NERRS:marcewq:1,2019-09-11T06:15:00Z,28.1323,-97.0344,2.27,23.4,11111222 
NERRS,ioos:station:NOAA.NERRS:marcewq:1,2019-09-11T07:15:00Z,28.1323,-97.0344,2.28,23.4,11111222 
NERRS,ioos:station:NOAA.NERRS:marcewq:1,2019-09-11T08:15:00Z,28.1323,-97.0344,2.28,23.3,11111222 
NERRS,ioos:station:NOAA.NERRS:marcewq:1,2019-09-11T09:15:00Z,28.1323,-97.0344,2.29,23.0,11111222 
NERRS,ioos:station:NOAA.NERRS:marcewq:1,2019-09-11T10:15:00Z,28.1323,-97.0344,2.3,22.4,11111222 
NERRS,ioos:station:NOAA.NERRS:marcewq:1,2019-09-11T11:15:00Z,28.1323,-97.0344,2.32,23.8,11111222 
NERRS,ioos:station:NOAA.NERRS:marcewq:1,2019-09-11T12:15:00Z,28.1323,-97.0344,2.34,24.0,11111222 